Weather History for Killeen/Ft Hood, TX

Change the Weather History Date:

Wednesday, November 21, 2012

  Actual Average Record
Temperature  
Mean Temperature 68 °F -  
Max Temperature 81 °F 66 °F 82 °F (2010)
Min Temperature 55 °F 48 °F 36 °F (2006)
Cooling Degree Days 3    
Growing Degree Days 18 (Base 50)    
Moisture  
Dew Point 51 °F    
Average Humidity 63    
Maximum Humidity 89    
Minimum Humidity 34    
Precipitation  
Precipitation 0.00 in - - ()
Sea Level Pressure  
Sea Level Pressure 30.22 in    
Wind  
Wind Speed 2 mph (SE)    
Max Wind Speed 9 mph    
Max Gust Speed -    
Visibility 10 miles    
Events      
Averages and records for this station are not official NWS values.
T = Trace of Precipitation, MM = Missing Value Source: NWS Daily Summary

Daily Weather History Graph

Daily Weather History Graph

Search for Another Location

Airport:

Trip Planner

Search our weather history database for the weather conditions in past years. The results will help you decide how hot, cold, wet, or windy it might be!

Date:

Astronomy

Nov. 21, 2012 Rise Set
Actual Time 7:03 AM CST 5:29 PM CST
Civil Twilight 6:37 AM CST 5:55 PM CST
Nautical Twilight 6:08 AM CST 6:25 PM CST
Astronomical Twilight 5:39 AM CST 6:54 PM CST
Moon 1:25 PM CST 12:47 AM CST
Length of Visible Light 11h 18m
Length of Day
10h 26m
First Quarter, 62% of the Moon is Illuminated
Nov 21
First Quarter
Nov 28
Full
Dec 6
Last Quarter
Dec 13
New
Dec 19
First Quarter

Hourly Weather History & Observations

Time (CST) Temp. Heat Index Dew Point Humidity Pressure Visibility Wind Dir Wind Speed Gust Speed Precip Events Conditions
12:56 AM 57.9 °F - 53.1 °F 84% 30.20 in 10.0 mi Calm Calm - N/A   Clear
1:56 AM 59.0 °F - 52.0 °F 78% 30.28 in 10.0 mi Calm Calm - N/A   Clear
2:56 AM 57.0 °F - 52.0 °F 83% 30.28 in 10.0 mi Calm Calm - N/A   Clear
3:56 AM 55.9 °F - 52.0 °F 87% 30.28 in 10.0 mi Calm Calm - N/A   Clear
4:56 AM 55.9 °F - 52.0 °F 87% 30.20 in 10.0 mi Calm Calm - N/A   Clear
5:56 AM 55.0 °F - 52.0 °F 89% 30.21 in 10.0 mi Calm Calm - N/A   Clear
6:56 AM 55.0 °F - 52.0 °F 89% 30.23 in 10.0 mi Calm Calm - N/A   Clear
7:56 AM 57.9 °F - 54.0 °F 87% 30.25 in 10.0 mi Calm Calm - N/A   Clear
8:56 AM 63.0 °F - 55.9 °F 78% 30.26 in 10.0 mi Calm Calm - N/A   Clear
9:56 AM 66.9 °F - 57.0 °F 70% 30.27 in 10.0 mi Calm Calm - N/A   Clear
10:56 AM 71.1 °F - 57.0 °F 61% 30.27 in 10.0 mi Calm Calm - N/A   Clear
11:56 AM 77.0 °F - 57.9 °F 52% 30.24 in 10.0 mi ESE 3.5 mph - N/A   Clear
12:56 PM 79.0 °F - 55.9 °F 45% 30.21 in 10.0 mi Variable 4.6 mph - N/A   Clear
1:56 PM 81.0 °F 80.4 °F 53.1 °F 38% 30.18 in 10.0 mi ESE 8.1 mph - N/A   Clear
2:56 PM 80.1 °F - 50.0 °F 35% 30.16 in 10.0 mi ESE 9.2 mph - N/A   Partly Cloudy
3:56 PM 77.0 °F - 48.0 °F 36% 30.16 in 10.0 mi SSE 8.1 mph - N/A   Clear
4:56 PM 77.0 °F - 46.9 °F 34% 30.16 in 10.0 mi ESE 4.6 mph - N/A   Clear
5:56 PM 73.0 °F - 48.0 °F 41% 30.16 in 10.0 mi ESE 4.6 mph - N/A   Clear
6:56 PM 69.1 °F - 48.9 °F 49% 30.17 in 10.0 mi ESE 3.5 mph - N/A   Clear
7:56 PM 64.9 °F - 48.9 °F 56% 30.18 in 10.0 mi ESE 3.5 mph - N/A   Clear
8:56 PM 63.0 °F - 48.0 °F 58% 30.18 in 10.0 mi SE 4.6 mph - N/A   Clear
9:56 PM 63.0 °F - 46.9 °F 56% 30.18 in 10.0 mi SSE 3.5 mph - N/A   Clear
10:56 PM 62.1 °F - 46.9 °F 58% 30.24 in 10.0 mi SE 5.8 mph - N/A   Clear
11:56 PM 60.1 °F - 46.0 °F 60% 30.22 in 10.0 mi SSE 4.6 mph - N/A   Clear